Погода в Санлукаре де Баррамеда

Испания     36°46′18″N   6°21′12″W
темп.,
°C
ветер,
м/с
пор.,
м/с
влажн.,
%
обл.,
%
осадки,
мм/ч
давл.,
гПа
погр.,
м
16 июня, ср
ср1623:00+20юз36842 0.0 1015290
02:00+19юз358832 0.0 1015187
05:00+19ююз2381100 0.0 1014323
08:00+20ююз3372100 0.0 1014784
11:00+21ююз456692 0.0 1015956
14:00+24юз66556 0.0 10141106
17:00+24юз66520 0.0 1013988
20:00+22юз67640 0.0 1013807
17 июня, чт
чт1723:00+19юз46750 0.0 1014228
02:00+18ю368243 0.0 1014195
05:00+20ююз3671100 0.3 1012518
08:00+20ю467480 1.0 1012356
11:00+23зюз5654100 0.5 10131240
14:00+24юз6754100 0.5 10131457
17:00+24зюз675344 0.1 10131392
20:00+22зюз5663100 0.1 1012891
18 июня, пт
пт1823:00+19зюз3481100 0.0 1013177
02:00+19ю35845 0.0 1012134
05:00+17ююв259029 0.8 1012158
08:00+17зсз3591100 3.6 1012304
11:00+20з4468100 0.0 1014727
14:00+22з5555100 0.0 1014817
17:00+22зюз664948 0.0 1013806
20:00+21зюз665580 0.0 1013695
19 июня, сб
сб1923:00+18зюз477047 0.0 1014275
02:00+18юз367890 0.0 1014243
05:00+17зюз238155 0.1 1014112
08:00+17зсз457966 0.4 1014396
11:00+19зсз556751 0.1 10151002
14:00+22з66530 0.2 10151218
17:00+22з77551 0.0 10151278
20:00+21зюз77621 0.0 1016802
20 июня, вс
вс2023:00+19зюз5963100 0.0 1017427
02:00+19сз476010 0.0 1017286
05:00+16сз367498 0.0 1017181
08:00+16сз35755 0.0 1018334
11:00+20зсз44512 0.0 1019963
14:00+22з65476 0.0 10181029
17:00+22з77593 0.0 1017896
20:00+21з677128 0.0 1017695